This is the latest recevied weather packets stored in our database for station/object KE5VT. If no packets are shown the sender has not sent any weather packets the latest 10 day(s).
| Time | Temp. | Humidity | Pressure | Rain* | Wind** | Luminosity | Snow |
|---|---|---|---|---|---|---|---|
| 1787498668 | 28.33° C | 62% | 1012.6 hPa | 0 mm | - | 322 W/m² | - |
| 1787498364 | 27.78° C | 59% | 1012.4 hPa | 0 mm | - | 263 W/m² | - |
| 1787498060 | 28.33° C | 62% | 1012.3 hPa | 0 mm | - | 544 W/m² | - |
| 1787497755 | 28.33° C | 64% | 1012.4 hPa | 0 mm | - | 521 W/m² | - |
| 1787497451 | 28.33° C | 65% | 1012.4 hPa | 0 mm | - | 160 W/m² | - |
| 1787497149 | 27.78° C | 68% | 1012.4 hPa | 0 mm | - | 250 W/m² | - |
| 1787496844 | 27.22° C | 68% | 1012.4 hPa | 0 mm | - | 379 W/m² | - |
| 1787496540 | 27.22° C | 69% | 1012.3 hPa | 0 mm | - | 98 W/m² | - |
| 1787496240 | 27.22° C | 67% | 1012.3 hPa | 0 mm | - | 48 W/m² | - |
| 1787495939 | 27.22° C | 68% | 1012.3 hPa | 0 mm | - | 47 W/m² | - |
| 1787495635 | 26.67° C | 70% | 1012.1 hPa | 0 mm | - | 146 W/m² | - |
| 1787495330 | 26.67° C | 72% | 1012.1 hPa | 0 mm | - | 75 W/m² | - |
| 1787495026 | 26.11° C | 75% | 1012 hPa | 0 mm | - | 45 W/m² | - |
| 1787494726 | 26.11° C | 78% | 1012 hPa | 0 mm | - | 49 W/m² | - |
| 1787494422 | 25.56° C | 79% | 1011.9 hPa | 0 mm | - | 48 W/m² | - |
| 1787494117 | 25.56° C | 82% | 1012 hPa | 0 mm | - | 43 W/m² | - |
| 1787493814 | 25.56° C | 84% | 1011.9 hPa | 0 mm | - | 43 W/m² | - |
| 1787493513 | 25° C | 86% | 1012.1 hPa | 0 mm | - | 92 W/m² | - |
| 1787493209 | 25° C | 87% | 1012 hPa | 0 mm | - | 54 W/m² | - |
| 1787492905 | 25° C | 89% | 1011.9 hPa | 0 mm | - | 47 W/m² | - |
| 1787492600 | 24.44° C | 90% | 1012 hPa | 0 mm | - | 40 W/m² | - |
| 1787492296 | 24.44° C | 91% | 1011.8 hPa | 0 mm | - | 42 W/m² | - |
| 1787491991 | 23.89° C | 93% | 1011.9 hPa | 0 mm | - | 38 W/m² | - |
| 1787491687 | 23.89° C | 95% | 1011.9 hPa | 0 mm | - | 38 W/m² | - |
| 1787491387 | 23.33° C | 95% | 1011.7 hPa | 0 mm | - | 37 W/m² | - |
* Rain latest hour (hover to see other rain measurements)
** Current wind speed in m/s (hover to see current wind gust speed)